Location: Caltech
(34.1382°N, 118.1253°W)
Time: 04:06:49
(UTC-07:00)

ADEOS II - Visible Passes

Search period start: 01 November 2014 00:00
Search period end: 10 November 2014 23:00
Orbit: 802 x 802 km, 98.3° (Epoch: 31 October)

Date Brightness Start Highest point End Pass type
(mag) Time Alt. Az. Time Alt. Az. Time Alt. Az.
01 Nov 4.5 05:58:45 10° NE 06:03:07 26° E 06:07:28 10° SSE visible
01 Nov 4.3 18:54:15 10° SSW 18:58:48 30° W 19:03:22 10° NW visible
02 Nov 5.3 04:34:09 10° ENE 04:36:54 14° E 04:39:38 10° SE visible
02 Nov 3.0 17:27:33 10° S 17:32:41 55° W 17:37:50 10° NNW visible
03 Nov 2.3 05:45:42 10° NNE 05:50:59 81° ESE 05:56:13 10° S visible
04 Nov 3.5 05:19:55 10° NNE 05:24:55 44° E 05:29:54 10° S visible
04 Nov 5.1 18:17:09 10° SW 18:20:38 18° W 18:24:09 10° NW visible
05 Nov 4.6 04:54:33 10° NE 04:58:46 24° E 05:02:58 10° SSE visible
05 Nov 4.1 17:49:47 10° SSW 17:54:27 32° W 17:59:09 10° NW visible
06 Nov 5.4 04:30:12 10° ENE 04:32:32 13° E 04:34:51 10° ESE visible
06 Nov 2.8 17:23:11 10° S 17:28:21 60° W 17:33:33 10° NNW visible
07 Nov 2.4 05:41:23 10° NNE 05:46:39 74° ESE 05:51:53 10° S visible
08 Nov 3.6 05:15:38 10° NNE 05:20:34 40° E 05:25:28 10° SSE visible
08 Nov 4.9 18:12:33 10° SW 18:16:16 20° W 18:20:01 10° NW visible
09 Nov 4.7 04:50:22 10° NE 04:54:24 22° E 04:58:25 10° SE visible
09 Nov 3.9 17:45:19 10° SSW 17:50:05 35° W 17:54:54 10° NNW visible
10 Nov 5.4 04:26:21 10° ENE 04:28:09 12° E 04:29:56 10° ESE visible
10 Nov 2.6 17:18:48 10° S 17:24:00 65° WSW 17:29:14 10° NNW visible
